FW8733 Weather Reports


Display with metric or nautical units.
time (UTC)temp
F
wind
direction
speed
MPH
gust
MPH
rain 1hr
in
rain 24hr
in
rain mn
in
humidity
%
barometer
mb
20260904213745 93 169 5.0 7.0 0.00 0.00 0.00 52 1015.5
20260904213241 93 221 5.0 7.0 0.00 0.00 0.00 53 1015.7
20260904212736 92 187 3.0 5.0 0.00 0.00 0.00 55 1015.7
20260904212236 92 206 3.0 3.0 0.00 0.00 0.00 54 1015.6
20260904211731 93 129 6.0 9.0 0.00 0.00 0.00 55 1015.7
20260904211226 93 208 0.0 1.0 0.00 0.00 0.00 54 1015.8
20260904210721 95 158 7.0 9.0 0.00 0.00 0.00 53 1015.9
20260904210216 95 188 2.0 3.0 0.00 0.00 0.00 51 1016.0
20260904205712 93 196 3.0 5.0 0.00 0.00 0.00 53 1015.9
20260904205208 94 97 3.0 3.0 0.00 0.00 0.00 53 1015.9
20260904204703 94 160 3.0 5.0 0.00 0.00 0.00 52 1016.2
20260904204159 94 198 3.0 5.0 0.00 0.00 0.00 53 1016.1
20260904203655 94 230 0.0 0.0 0.00 0.00 0.00 56 1016.3
20260904203152 94 203 4.0 5.0 0.00 0.00 0.00 56 1016.3
20260904202647 94 160 4.0 5.0 0.00 0.00 0.00 56 1016.2
20260904202143 94 129 3.0 3.0 0.00 0.00 0.00 56 1016.3
20260904201638 94 176 3.0 5.0 0.00 0.00 0.00 55 1016.3
20260904201132 93 230 3.0 3.0 0.00 0.00 0.00 57 1016.5
20260904200627 93 155 6.0 7.0 0.00 0.00 0.00 60 1016.4
20260904200121 93 195 7.0 9.0 0.00 0.00 0.00 58 1016.6
20260904195620 93 201 7.0 10.0 0.00 0.00 0.00 59 1016.6
20260904195114 93 169 3.0 3.0 0.00 0.00 0.00 61 1016.6
20260904194614 92 206 4.0 5.0 0.00 0.00 0.00 61 1016.6
20260904194109 92 192 4.0 5.0 0.00 0.00 0.00 63 1016.7
20260904193603 92 181 5.0 6.0 0.00 0.00 0.00 63 1016.6
20260904193100 91 227 2.0 2.0 0.00 0.00 0.00 65 1017.1
20260904192559 91 133 2.0 2.0 0.00 0.00 0.00 64 1017.0
20260904192055 91 207 4.0 7.0 0.00 0.00 0.00 65 1017.2
20260904191552 91 144 4.0 5.0 0.00 0.00 0.00 65 1017.4
20260904191048 90 185 6.0 9.0 0.00 0.00 0.00 67 1017.5
20260904190543 89 186 5.0 6.0 0.00 0.00 0.00 68 1017.5
20260904190039 89 149 5.0 7.0 0.00 0.00 0.00 69 1017.6
20260904185536 90 214 4.0 6.0 0.00 0.00 0.00 67 1017.5
20260904185031 90 167 7.0 9.0 0.00 0.00 0.00 67 1017.4
20260904184530 89 168 5.0 7.0 0.00 0.00 0.00 68 1017.6
20260904184026 88 203 2.0 2.0 0.00 0.00 0.00 69 1017.7
20260904183521 89 221 3.0 5.0 0.00 0.00 0.00 69 1017.7
20260904183016 89 205 2.0 3.0 0.00 0.00 0.00 69 1017.9
20260904182512 89 172 2.0 3.0 0.00 0.00 0.00 69 1017.6
20260904182011 90 177 4.0 7.0 0.00 0.00 0.00 68 1017.6
20260904181507 89 183 6.0 7.0 0.00 0.00 0.00 68 1017.7
20260904181001 90 164 6.0 8.0 0.00 0.00 0.00 68 1017.8
20260904180456 90 193 5.0 6.0 0.00 0.00 0.00 68 1018.1
20260904175955 90 207 3.0 3.0 0.00 0.00 0.00 68 1017.9
20260904175450 89 180 2.0 6.0 0.00 0.00 0.00 69 1018.1
20260904174949 89 174 4.0 6.0 0.00 0.00 0.00 68 1018.0
20260904174445 88 195 3.0 3.0 0.00 0.00 0.00 71 1018.2
20260904173941 88 137 3.0 5.0 0.00 0.00 0.00 70 1018.2
20260904173441 88 160 4.0 7.0 0.00 0.00 0.00 69 1018.5
20260904172936 88 205 0.0 0.0 0.00 0.00 0.00 69 1018.3
20260904172431 89 215 3.0 5.0 0.00 0.00 0.00 68 1018.6
20260904171926 88 203 2.0 5.0 0.00 0.00 0.00 72 1018.2
20260904171422 89 245 2.0 3.0 0.00 0.00 0.00 69 1018.1
20260904170918 88 199 3.0 5.0 0.00 0.00 0.00 70 1018.3
20260904170413 89 196 1.0 2.0 0.00 0.00 0.00 70 1018.3
20260904165908 89 195 2.0 3.0 0.00 0.00 0.00 67 1018.5
20260904165407 89 182 3.0 5.0 0.00 0.00 0.00 68 1018.4
20260904164906 89 173 1.0 2.0 0.00 0.00 0.00 70 1018.3
20260904164401 87 222 0.0 0.0 0.00 0.00 0.00 75 1018.2
20260904163857 87 189 3.0 5.0 0.00 0.00 0.00 72 1018.2
20260904163357 87 168 1.0 2.0 0.00 0.00 0.00 73 1018.1
20260904162856 86 279 1.0 1.0 0.00 0.00 0.00 75 1018.3
20260904162352 86 184 0.0 0.0 0.00 0.00 0.00 77 1018.2
20260904161847 85 250 2.0 3.0 0.00 0.00 0.00 77 1018.2
20260904161342 85 281 2.0 2.0 0.00 0.00 0.00 78 1018.6
20260904160838 85 210 0.0 1.0 0.00 0.00 0.00 78 1018.3
20260904160333 85 210 0.0 0.0 0.00 0.00 0.00 78 1018.3
20260904155828 85 208 0.0 0.0 0.00 0.00 0.00 80 1018.3
20260904155322 85 223 1.0 3.0 0.00 0.00 0.00 80 1018.2
20260904154821 84 177 3.0 3.0 0.00 0.00 0.00 81 1018.0
20260904154315 84 173 2.0 2.0 0.00 0.00 0.00 81 1018.1
20260904153811 84 185 2.0 2.0 0.00 0.00 0.00 82 1018.2
20260904153306 83 182 1.0 2.0 0.00 0.00 0.00 83 1018.1
20260904152803 83 220 2.0 2.0 0.00 0.00 0.00 83 1018.2
20260904152257 83 181 2.0 2.0 0.00 0.00 0.00 84 1018.2
20260904151752 83 203 0.0 1.0 0.00 0.00 0.00 85 1018.0
20260904151251 82 190 3.0 3.0 0.00 0.00 0.00 86 1018.0
20260904150748 82 260 0.0 1.0 0.00 0.00 0.00 87 1018.2
20260904150243 82 206 1.0 1.0 0.00 0.00 0.00 87 1018.2
20260904145740 82 187 0.0 1.0 0.00 0.00 0.00 88 1018.2
20260904145236 82 211 1.0 2.0 0.00 0.00 0.00 88 1018.2
20260904144732 82 214 0.0 0.0 0.00 0.00 0.00 89 1018.3
20260904144227 82 222 1.0 1.0 0.00 0.00 0.00 89 1018.5
20260904143722 81 212 0.0 0.0 0.00 0.00 0.00 90 1018.5
20260904143220 81 216 0.0 1.0 0.00 0.00 0.00 91 1018.3
20260904142716 81 212 1.0 1.0 0.00 0.00 0.00 91 1018.4
20260904142211 81 199 0.0 0.0 0.00 0.00 0.00 92 1018.5
20260904141711 81 198 0.0 1.0 0.00 0.00 0.00 93 1018.3
20260904141207 81 197 1.0 2.0 0.00 0.00 0.00 92 1018.3
20260904140702 81 213 1.0 1.0 0.00 0.00 0.00 92 1018.2
20260904140157 81 213 1.0 1.0 0.00 0.00 0.00 92 1018.3
20260904135656 80 213 0.0 1.0 0.00 0.00 0.00 92 1018.3
20260904135152 80 176 2.0 2.0 0.00 0.00 0.00 92 1018.3
20260904134648 80 187 1.0 1.0 0.00 0.00 0.00 93 1018.1
20260904134146 80 215 1.0 1.0 0.00 0.00 0.00 93 1018.1
20260904133642 80 178 2.0 2.0 0.00 0.00 0.00 93 1018.3
20260904133138 80 210 2.0 2.0 0.00 0.00 0.00 93 1018.3
20260904132637 80 212 1.0 1.0 0.00 0.00 0.00 93 1018.1
20260904132132 80 213 0.0 0.0 0.00 0.00 0.00 94 1018.3
20260904131631 80 212 1.0 2.0 0.00 0.00 0.00 94 1018.1
20260904131128 79 213 1.0 2.0 0.00 0.00 0.00 94 1018.1
20260904130627 79 212 0.0 0.0 0.00 0.00 0.00 94 1018.2
20260904130122 79 213 0.0 0.0 0.00 0.00 0.00 94 1018.1
20260904125618 79 212 1.0 1.0 0.00 0.00 0.00 94 1017.9
20260904125113 79 212 1.0 1.0 0.00 0.00 0.00 94 1017.7
20260904124608 79 225 0.0 0.0 0.00 0.00 0.00 94 1017.7
20260904124104 79 213 0.0 0.0 0.00 0.00 0.00 94 1017.7
20260904123603 79 212 1.0 2.0 0.00 0.00 0.00 94 1017.7
20260904123059 79 196 2.0 2.0 0.00 0.00 0.00 94 1017.4
20260904122554 79 189 1.0 2.0 0.00 0.00 0.00 94 1017.5
20260904122049 79 194 2.0 2.0 0.00 0.00 0.00 94 1017.7
20260904121544 79 184 3.0 3.0 0.00 0.00 0.00 94 1017.3
20260904121040 79 213 0.0 0.0 0.00 0.00 0.00 94 1017.2
20260904120536 79 209 1.0 1.0 0.00 0.00 0.00 94 1017.1
20260904120031 79 185 4.0 5.0 0.00 0.00 0.00 94 1017.1
20260904115527 79 185 2.0 3.0 0.00 0.00 0.00 95 1016.6
20260904115027 79 187 2.0 3.0 0.00 0.00 0.00 95 1016.7
20260904114522 79 166 3.0 3.0 0.00 0.00 0.00 95 1017.0
20260904114021 79 184 3.0 5.0 0.00 0.00 0.00 95 1016.7
20260904113516 79 212 0.0 0.0 0.00 0.00 0.00 95 1016.8
20260904113016 79 139 2.0 2.0 0.00 0.00 0.00 94 1016.4
20260904112511 79 171 1.0 2.0 0.00 0.00 0.00 94 1016.7
20260904112007 79 173 3.0 3.0 0.00 0.00 0.00 93 1016.6
20260904111503 79 209 0.0 0.0 0.00 0.00 0.00 92 1016.7
20260904110958 79 165 3.0 3.0 0.00 0.00 0.00 92 1016.5
20260904110457 80 209 1.0 1.0 0.00 0.00 0.00 92 1016.7
20260904105952 80 192 1.0 1.0 0.00 0.00 0.00 92 1016.6
20260904105452 80 212 1.0 2.0 0.00 0.00 0.00 92 1016.4
20260904104947 80 211 1.0 2.0 0.00 0.00 0.00 92 1016.5
20260904104442 80 211 0.0 0.0 0.00 0.00 0.00 92 1016.3
20260904103938 80 191 1.0 2.0 0.00 0.00 0.00 91 1016.4
20260904103434 80 211 0.0 0.0 0.00 0.00 0.00 91 1016.3
20260904102930 80 188 2.0 2.0 0.00 0.00 0.00 91 1016.3
20260904102425 80 212 2.0 2.0 0.00 0.00 0.00 91 1016.3
20260904101921 80 189 1.0 1.0 0.00 0.00 0.00 91 1016.3
20260904101417 80 208 1.0 1.0 0.00 0.00 0.00 91 1016.4
20260904100913 80 207 1.0 1.0 0.00 0.00 0.00 91 1016.3
20260904100409 80 207 1.0 1.0 0.00 0.00 0.00 91 1016.1
20260904095908 80 210 0.0 1.0 0.00 0.00 0.00 91 1016.3
20260904095403 80 207 1.0 1.0 0.00 0.00 0.00 91 1016.3
20260904094858 80 207 0.0 0.0 0.00 0.00 0.00 91 1016.2
20260904094353 80 209 1.0 2.0 0.00 0.00 0.00 90 1016.2
20260904093850 80 209 0.0 1.0 0.00 0.00 0.00 90 1016.2
20260904093349 80 207 2.0 3.0 0.00 0.00 0.00 90 1016.3
20260904092845 80 177 2.0 2.0 0.00 0.00 0.00 90 1015.9
20260904092342 80 205 1.0 1.0 0.00 0.00 0.00 90 1015.8
20260904091837 80 211 2.0 2.0 0.00 0.00 0.00 90 1016.0
20260904091333 80 206 1.0 1.0 0.00 0.00 0.00 90 1015.9
20260904090827 80 205 0.0 1.0 0.00 0.00 0.00 89 1016.3
20260904090324 80 205 1.0 1.0 0.00 0.00 0.00 89 1016.2
20260904085818 80 219 0.0 0.0 0.00 0.00 0.00 89 1016.1
20260904085314 80 203 0.0 1.0 0.00 0.00 0.00 89 1016.3
20260904084808 80 219 0.0 0.0 0.00 0.00 0.00 89 1016.2
20260904084304 80 208 0.0 2.0 0.00 0.00 0.00 89 1016.1
20260904083800 80 203 0.0 1.0 0.00 0.00 0.00 89 1016.3
20260904083256 80 220 0.0 0.0 0.00 0.00 0.00 89 1016.1
20260904082751 80 220 0.0 0.0 0.00 0.00 0.00 89 1016.1
20260904082245 80 203 0.0 1.0 0.00 0.00 0.00 89 1016.2
20260904081741 80 203 0.0 1.0 0.00 0.00 0.00 89 1016.1
20260904081237 80 199 1.0 2.0 0.00 0.00 0.00 89 1016.3
20260904080732 80 200 1.0 2.0 0.00 0.00 0.00 89 1016.2
20260904080228 80 209 1.0 1.0 0.00 0.00 0.00 89 1016.2
20260904075724 80 186 3.0 3.0 0.00 0.00 0.00 89 1016.2
20260904075219 80 184 3.0 5.0 0.00 0.00 0.00 88 1016.3
20260904074718 80 206 0.0 1.0 0.00 0.00 0.00 88 1015.9
20260904074212 80 199 2.0 3.0 0.00 0.00 0.00 88 1016.3
20260904073708 80 216 2.0 2.0 0.00 0.00 0.00 88 1016.3
20260904073204 80 201 3.0 3.0 0.00 0.00 0.00 87 1016.1
20260904072700 80 203 0.0 0.0 0.00 0.00 0.00 87 1016.2
20260904072154 80 167 1.0 2.0 0.00 0.00 0.00 87 1016.3
20260904071650 80 198 3.0 3.0 0.00 0.00 0.00 87 1016.3
20260904071145 81 199 1.0 2.0 0.00 0.00 0.00 86 1016.4
20260904070644 81 176 2.0 2.0 0.00 0.00 0.00 86 1016.6
20260904070143 81 159 4.0 6.0 0.00 0.00 0.00 86 1016.6
20260904065638 81 223 0.0 1.0 0.00 0.00 0.00 85 1016.7
20260904065136 81 163 3.0 3.0 0.00 0.00 0.00 85 1016.7
20260904064631 81 162 4.0 5.0 0.00 0.00 0.00 85 1016.7
20260904064131 81 198 3.0 3.0 0.00 0.00 0.00 85 1016.7
20260904063627 81 223 0.0 0.0 0.00 0.00 0.00 85 1016.5
20260904063122 81 217 0.0 0.0 0.00 0.00 0.00 84 1016.6
20260904062618 81 162 2.0 3.0 0.00 0.00 0.00 85 1016.7
20260904062113 81 211 1.0 1.0 0.00 0.00 0.00 84 1016.4
20260904061609 81 199 0.0 0.0 0.00 0.00 0.00 84 1016.4
20260904061105 81 181 4.0 6.0 0.00 0.00 0.00 84 1016.3
20260904060601 81 201 1.0 1.0 0.00 0.00 0.00 84 1016.6
20260904060057 81 204 1.0 1.0 0.00 0.00 0.00 84 1016.5
20260904055552 81 177 3.0 3.0 0.00 0.00 0.00 83 1016.4
20260904055047 81 130 3.0 6.0 0.00 0.00 0.00 84 1016.3
20260904054543 81 187 3.0 3.0 0.00 0.00 0.00 84 1016.4
20260904054039 81 203 1.0 2.0 0.00 0.00 0.00 84 1016.3
20260904053538 81 153 2.0 3.0 0.00 0.00 0.00 83 1016.4
20260904053034 81 201 3.0 3.0 0.00 0.00 0.00 83 1016.2
20260904052530 81 187 2.0 2.0 0.00 0.00 0.00 84 1016.3
20260904052026 81 156 1.0 3.0 0.00 0.00 0.00 84 1016.2
20260904051522 81 183 1.0 1.0 0.00 0.00 0.00 83 1016.3
20260904051021 81 203 3.0 5.0 0.00 0.00 0.00 83 1015.9
20260904050517 81 200 5.0 6.0 0.00 0.00 0.00 83 1016.1
20260904050013 81 129 3.0 5.0 0.00 0.00 0.00 82 1016.0
20260904045508 81 178 5.0 7.0 0.00 0.00 0.00 82 1016.1
20260904045003 81 110 3.0 5.0 0.00 0.00 0.00 82 1016.2
20260904044458 81 186 6.0 7.0 0.00 0.00 0.00 82 1016.2
20260904043955 81 150 5.0 6.0 0.00 0.00 0.00 82 1016.1
20260904043451 81 152 1.0 1.0 0.00 0.00 0.00 82 1016.2
20260904042946 81 195 3.0 5.0 0.00 0.00 0.00 82 1016.1
20260904042443 81 203 1.0 1.0 0.00 0.00 0.00 81 1016.1
20260904041937 81 207 4.0 6.0 0.00 0.00 0.00 81 1016.1
20260904041434 81 181 3.0 3.0 0.00 0.00 0.00 81 1016.2
20260904040930 82 174 2.0 2.0 0.00 0.00 0.00 81 1016.2
20260904040429 82 177 4.0 6.0 0.00 0.00 0.00 81 1016.0
20260904035925 82 234 2.0 2.0 0.00 0.00 0.00 80 1016.0
20260904035421 82 167 2.0 3.0 0.00 0.00 0.00 80 1015.9
20260904034920 82 147 6.0 7.0 0.00 0.00 0.00 80 1016.0
20260904034415 82 137 4.0 7.0 0.00 0.00 0.00 79 1015.8
20260904033911 82 190 3.0 5.0 0.00 0.00 0.00 79 1015.9
20260904033408 82 183 5.0 6.0 0.00 0.00 0.00 78 1016.0
20260904032903 82 200 4.0 5.0 0.00 0.00 0.00 78 1015.7
20260904032358 83 163 3.0 3.0 0.00 0.00 0.00 78 1015.7
20260904031852 83 169 6.0 7.0 0.00 0.00 0.00 77 1015.9
20260904031348 83 167 5.0 6.0 0.00 0.00 0.00 77 1015.9
20260904030844 83 206 3.0 6.0 0.00 0.00 0.00 76 1015.8
20260904030339 83 188 3.0 6.0 0.00 0.00 0.00 76 1015.8
20260904025835 83 128 6.0 7.0 0.00 0.00 0.00 75 1015.9
20260904025331 84 165 4.0 5.0 0.00 0.00 0.00 75 1015.6
20260904024830 84 167 4.0 6.0 0.00 0.00 0.00 74 1015.6
20260904024325 84 181 3.0 6.0 0.00 0.00 0.00 74 1015.6
20260904023822 84 203 5.0 6.0 0.00 0.00 0.00 73 1015.3
20260904023318 84 208 4.0 5.0 0.00 0.00 0.00 73 1015.2
20260904022816 84 136 5.0 6.0 0.00 0.00 0.00 72 1015.2
20260904022314 84 187 4.0 6.0 0.00 0.00 0.00 72 1015.2
20260904021810 85 167 5.0 7.0 0.00 0.00 0.00 72 1015.3
20260904021310 85 189 6.0 7.0 0.00 0.00 0.00 71 1015.2
20260904020805 85 199 2.0 2.0 0.00 0.00 0.00 71 1015.2
20260904020300 85 162 6.0 7.0 0.00 0.00 0.00 71 1014.9
20260904015758 85 201 3.0 5.0 0.00 0.00 0.00 71 1015.1
20260904015254 85 187 5.0 7.0 0.00 0.00 0.00 70 1014.9
20260904014752 85 177 2.0 2.0 0.00 0.00 0.00 70 1014.9
20260904014248 85 205 2.0 3.0 0.00 0.00 0.00 70 1015.0
20260904013744 86 193 4.0 5.0 0.00 0.00 0.00 69 1014.9
20260904013240 86 171 2.0 3.0 0.00 0.00 0.00 69 1014.6
20260904012736 86 191 4.0 5.0 0.00 0.00 0.00 69 1014.4
20260904012235 86 201 4.0 8.0 0.00 0.00 0.00 69 1014.3
20260904011734 86 200 4.0 7.0 0.00 0.00 0.00 68 1014.4
20260904011230 86 191 3.0 7.0 0.00 0.00 0.00 68 1014.4
20260904010725 87 198 5.0 6.0 0.00 0.00 0.00 68 1014.3
20260904010221 87 186 5.0 7.0 0.00 0.00 0.00 67 1014.3
20260904005716 87 156 7.0 10.0 0.00 0.00 0.00 67 1014.3
20260904005212 87 207 12.0 15.0 0.00 0.00 0.00 67 1014.4
20260904004712 87 147 4.0 5.0 0.00 0.00 0.00 67 1014.4
20260904004207 87 187 7.0 9.0 0.00 0.00 0.00 67 1014.3
20260904003702 88 211 0.0 1.0 0.00 0.00 0.00 67 1014.5
20260904003159 88 155 5.0 6.0 0.00 0.00 0.00 66 1014.4
20260904002654 88 152 4.0 5.0 0.00 0.00 0.00 66 1014.5
20260904002150 88 183 6.0 9.0 0.00 0.00 0.00 65 1014.4
20260904001645 89 174 6.0 7.0 0.00 0.00 0.00 64 1014.4
20260904001143 89 149 7.0 11.0 0.00 0.00 0.00 64 1014.2
20260904000639 89 203 4.0 6.0 0.00 0.00 0.00 64 1014.1
20260904000134 90 187 5.0 10.0 0.00 0.00 0.00 65 1014.1
20260903235634 90 120 8.0 11.0 0.00 0.00 0.00 64 1013.8
20260903235130 90 222 3.0 5.0 0.00 0.00 0.00 64 1014.0
20260903234624 90 159 3.0 6.0 0.00 0.00 0.00 64 1013.8
20260903234121 90 135 4.0 5.0 0.00 0.00 0.00 64 1013.8
20260903233617 90 147 4.0 5.0 0.00 0.00 0.00 65 1014.3
20260903233112 91 175 7.0 8.0 0.00 0.00 0.00 64 1014.1
20260903232607 92 212 5.0 8.0 0.00 0.00 0.00 62 1013.8
20260903232102 92 176 6.0 8.0 0.00 0.00 0.00 59 1013.9
20260903231556 93 195 7.0 8.0 0.00 0.00 0.00 55 1013.9
20260903231051 94 187 7.0 8.0 0.00 0.00 0.00 53 1013.7
20260903230547 94 221 2.0 3.0 0.00 0.00 0.00 53 1013.6
20260903230045 94 194 6.0 9.0 0.00 0.00 0.00 53 1013.3
20260903225543 94 158 8.0 10.0 0.00 0.00 0.00 53 1013.3
20260903225039 94 175 7.0 9.0 0.00 0.00 0.00 53 1013.5
20260903224530 94 180 3.0 5.0 0.00 0.00 0.00 53 1013.3
20260903224026 94 143 8.0 10.0 0.00 0.00 0.00 53 1013.4
20260903223525 95 131 9.0 13.0 0.00 0.00 0.00 53 1013.3
20260903223024 96 199 6.0 9.0 0.00 0.00 0.00 52 1013.2
20260903222519 96 136 9.0 10.0 0.00 0.00 0.00 51 1013.1
20260903222018 98 201 10.0 11.0 0.00 0.00 0.00 50 1012.9
20260903221513 99 197 5.0 6.0 0.00 0.00 0.00 48 1013.2
20260903221010 99 224 1.0 1.0 0.00 0.00 0.00 47 1013.0
20260903220504 99 175 7.0 9.0 0.00 0.00 0.00 47 1013.0
20260903220003 98 157 4.0 6.0 0.00 0.00 0.00 49 1013.1
20260903215459 98 169 3.0 6.0 0.00 0.00 0.00 49 1013.2
20260903214957 98 183 6.0 7.0 0.00 0.00 0.00 49 1013.1
20260903214453 97 202 6.0 7.0 0.00 0.00 0.00 50 1013.1
20260903213952 97 140 9.0 10.0 0.00 0.00 0.00 49 1013.3